This is the latest recevied weather packets stored in our database for station/object N9CQL. If no packets are shown the sender has not sent any weather packets the latest 10 day(s).
| Time | Temp. | Humidity | Pressure | Rain* | Wind** | Luminosity | Snow |
|---|---|---|---|---|---|---|---|
| 1777567857 | 14.44° C | 47% | 1015.2 hPa | 0 mm | - | 357 W/m² | - |
| 1777567553 | 13.33° C | 48% | 1015 hPa | 0 mm | - | 277 W/m² | - |
| 1777567251 | 13.33° C | 52% | 1015 hPa | 0 mm | - | 314 W/m² | - |
| 1777566949 | 13.33° C | 47% | 1015.1 hPa | 0 mm | - | 207 W/m² | - |
| 1777566646 | 13.33° C | 50% | 1015.2 hPa | 0 mm | - | 195 W/m² | - |
| 1777566344 | 13.89° C | 46% | 1015.4 hPa | 0 mm | - | 242 W/m² | - |
| 1777566041 | 13.89° C | 49% | 1015.3 hPa | 0 mm | - | 360 W/m² | - |
| 1777565737 | 13.33° C | 48% | 1015.3 hPa | 0 mm | - | 506 W/m² | - |
| 1777565433 | 12.78° C | 47% | 1015.5 hPa | 0 mm | - | 742 W/m² | - |
| 1777565129 | 12.22° C | 48% | 1015.4 hPa | 0 mm | - | 213 W/m² | - |
| 1777564826 | 12.78° C | 50% | 1015.4 hPa | 0 mm | - | 210 W/m² | - |
| 1777564526 | 12.78° C | 48% | 1015.6 hPa | 0 mm | - | 157 W/m² | - |
| 1777564215 | 12.78° C | 47% | 1015.6 hPa | 0 mm | - | 248 W/m² | - |
| 1777563913 | 12.78° C | 48% | 1015.6 hPa | 0 mm | - | 229 W/m² | - |
| 1777563609 | 12.78° C | 50% | 1015.7 hPa | 0 mm | - | 307 W/m² | - |
| 1777563309 | 12.22° C | 49% | 1015.5 hPa | 0 mm | - | 128 W/m² | - |
| 1777563005 | 11.67° C | 49% | 1015.4 hPa | 0 mm | - | 95 W/m² | - |
| 1777562701 | 11.67° C | 53% | 1015.7 hPa | 0 mm | - | 94 W/m² | - |
| 1777562400 | 11.67° C | 55% | 1015.6 hPa | 0 mm | - | 202 W/m² | - |
| 1777562097 | 12.22° C | 52% | 1015.6 hPa | 0 mm | - | 198 W/m² | - |
| 1777561794 | 12.78° C | 54% | 1015.8 hPa | 0 mm | - | 196 W/m² | - |
| 1777561490 | 12.22° C | 57% | 1015.8 hPa | 0 mm | - | 269 W/m² | - |
| 1777561185 | 12.22° C | 60% | 1015.6 hPa | 0 mm | - | 278 W/m² | - |
| 1777560880 | 11.67° C | 58% | 1015.5 hPa | 0 mm | - | 157 W/m² | - |
| 1777560578 | 11.11° C | 61% | 1015.6 hPa | 0 mm | - | 214 W/m² | - |
* Rain latest hour (hover to see other rain measurements)
** Current wind speed in m/s (hover to see current wind gust speed)